iso_date,epoch_date,Year,Hour,Min,DOY,POS_DOY,Lat,Lon,BP,Ts,Ta,has_bp,has_ts,has_ta,BuoyID,Buoy_Type,Buoy_Owner,Logistics,Hemisphere
2014-03-02T22:00:28Z,1393797629,2014,22,0,61.917,61.917,62.467,-114.41592,1011.99,-999.00,-999.0,yes,no,no,169312003533431,WB,BAS,APL_Sachs_Harbor,North
2014-03-02T22:59:31Z,1393801171,2014,23,0,61.958,61.958,62.46698,-114.41592,1009.45,-999.00,-999.0,yes,no,no,169312003533431,WB,BAS,APL_Sachs_Harbor,North
2014-03-03T00:00:00Z,1393804800,2014,0,0,62.0,62.0,62.467,-114.41592,1006.92,-999.00,-999.0,yes,no,no,169312003533431,WB,BAS,APL_Sachs_Harbor,North
2014-03-03T01:00:28Z,1393808429,2014,1,0,62.042,62.042,62.46698,-114.4159,1004.38,-999.00,-999.0,yes,no,no,169312003533431,WB,BAS,APL_Sachs_Harbor,North
2014-03-03T01:59:31Z,1393811971,2014,2,0,62.083,62.083,62.467,-114.41588,1003.05,-999.00,-999.0,yes,no,no,169312003533431,WB,BAS,APL_Sachs_Harbor,North
2014-03-03T03:00:00Z,1393815600,2014,3,0,62.125,62.125,62.46695,-114.41593,1008.12,-999.00,-999.0,yes,no,no,169312003533431,WB,BAS,APL_Sachs_Harbor,North
2014-03-03T04:00:28Z,1393819229,2014,4,0,62.167,62.167,62.46695,-114.41593,1000.52,-999.00,-999.0,yes,no,no,169312003533431,WB,BAS,APL_Sachs_Harbor,North
2014-03-03T04:59:31Z,1393822771,2014,5,0,62.208,62.208,62.46698,-114.4159,999.18,-999.00,-999.0,yes,no,no,169312003533431,WB,BAS,APL_Sachs_Harbor,North
2014-03-03T06:00:00Z,1393826400,2014,6,0,62.25,62.25,62.46698,-114.41592,997.98,-999.00,-999.0,yes,no,no,169312003533431,WB,BAS,APL_Sachs_Harbor,North
2014-03-03T07:00:28Z,1393830029,2014,7,0,62.292,62.292,62.46697,-114.41597,996.65,-999.00,-999.0,yes,no,no,169312003533431,WB,BAS,APL_Sachs_Harbor,North
2014-03-03T07:59:31Z,1393833571,2014,8,0,62.333,62.333,62.46702,-114.41603,997.98,-999.00,-999.0,yes,no,no,169312003533431,WB,BAS,APL_Sachs_Harbor,North
2014-03-03T09:00:00Z,1393837200,2014,9,0,62.375,62.375,62.46698,-114.4159,997.98,-999.00,-999.0,yes,no,no,169312003533431,WB,BAS,APL_Sachs_Harbor,North
2014-03-03T10:00:28Z,1393840829,2014,10,0,62.417,62.417,62.46697,-114.41592,996.65,-999.00,-999.0,yes,no,no,169312003533431,WB,BAS,APL_Sachs_Harbor,North
2014-03-20T00:00:00Z,1395273600,2014,0,0,79.0,79.0,74.40615,-137.42002,1032.39,-999.00,-999.0,yes,no,no,169312003533431,WB,BAS,APL_Sachs_Harbor,North
2014-03-20T01:00:28Z,1395277229,2014,1,0,79.042,79.042,74.40647,-137.41878,1032.39,-999.00,-999.0,yes,no,no,169312003533431,WB,BAS,APL_Sachs_Harbor,North
2014-03-20T01:59:31Z,1395280771,2014,2,0,79.083,79.083,74.40638,-137.41695,1029.85,-999.00,-999.0,yes,no,no,169312003533431,WB,BAS,APL_Sachs_Harbor,North
2014-03-20T03:00:00Z,1395284400,2014,3,0,79.125,79.125,74.40638,-137.41695,1029.85,-999.00,-999.0,yes,no,no,169312003533431,WB,BAS,APL_Sachs_Harbor,North
2014-03-20T04:00:28Z,1395288029,2014,4,0,79.167,79.167,74.40585,-137.41328,1028.51,-999.00,-999.0,yes,no,no,169312003533431,WB,BAS,APL_Sachs_Harbor,North
2014-03-20T04:59:31Z,1395291571,2014,5,0,79.208,79.208,74.40585,-137.41328,1028.51,-999.00,-999.0,yes,no,no,169312003533431,WB,BAS,APL_Sachs_Harbor,North
2014-03-20T06:00:00Z,1395295200,2014,6,0,79.25,79.25,74.40585,-137.41328,1031.18,-999.00,-999.0,yes,no,no,169312003533431,WB,BAS,APL_Sachs_Harbor,North
2014-03-20T07:00:28Z,1395298829,2014,7,0,79.292,79.292,74.40585,-137.41328,1029.84,-999.00,-999.0,yes,no,no,169312003533431,WB,BAS,APL_Sachs_Harbor,North
2014-03-20T07:59:31Z,1395302371,2014,8,0,79.333,79.333,74.40585,-137.41328,1033.71,-999.00,-999.0,yes,no,no,169312003533431,WB,BAS,APL_Sachs_Harbor,North
2014-03-20T09:00:00Z,1395306000,2014,9,0,79.375,79.375,74.40585,-137.41328,1027.31,-999.00,-999.0,yes,no,no,169312003533431,WB,BAS,APL_Sachs_Harbor,North
2014-03-20T10:00:28Z,1395309629,2014,10,0,79.417,79.417,74.40585,-137.41328,1029.84,-999.00,-999.0,yes,no,no,169312003533431,WB,BAS,APL_Sachs_Harbor,North
2014-03-20T10:59:31Z,1395313171,2014,11,0,79.458,79.458,74.40537,-137.3744,1027.31,-999.00,-999.0,yes,no,no,169312003533431,WB,BAS,APL_Sachs_Harbor,North
2014-03-20T12:00:00Z,1395316800,2014,12,0,79.5,79.5,74.40532,-137.36537,1024.78,-999.00,-999.0,yes,no,no,169312003533431,WB,BAS,APL_Sachs_Harbor,North
2014-03-20T13:00:28Z,1395320429,2014,13,0,79.542,79.542,74.40543,-137.35642,1028.51,-999.00,-999.0,yes,no,no,169312003533431,WB,BAS,APL_Sachs_Harbor,North
2014-03-20T13:59:31Z,1395323971,2014,14,0,79.583,79.583,74.40553,-137.34748,1027.31,-999.00,-999.0,yes,no,no,169312003533431,WB,BAS,APL_Sachs_Harbor,North
2014-03-20T15:00:00Z,1395327600,2014,15,0,79.625,79.625,74.40582,-137.33838,1025.98,-999.00,-999.0,yes,no,no,169312003533431,WB,BAS,APL_Sachs_Harbor,North
2014-03-20T16:00:28Z,1395331229,2014,16,0,79.667,79.667,74.40618,-137.32955,1025.98,-999.00,-999.0,yes,no,no,169312003533431,WB,BAS,APL_Sachs_Harbor,North
2014-03-20T16:59:31Z,1395334771,2014,17,0,79.708,79.708,74.40657,-137.31827,1024.78,-999.00,-999.0,yes,no,no,169312003533431,WB,BAS,APL_Sachs_Harbor,North
2014-03-20T18:00:00Z,1395338400,2014,18,0,79.75,79.75,74.40755,-137.30513,1025.99,-999.00,-999.0,yes,no,no,169312003533431,WB,BAS,APL_Sachs_Harbor,North
2014-03-20T19:00:28Z,1395342029,2014,19,0,79.792,79.792,74.4088,-137.28917,1025.99,-999.00,-999.0,yes,no,no,169312003533431,WB,BAS,APL_Sachs_Harbor,North
2014-03-20T19:59:31Z,1395345571,2014,20,0,79.833,79.833,74.41002,-137.271,1014.52,-999.00,-999.0,yes,no,no,169312003533431,WB,BAS,APL_Sachs_Harbor,North
2014-03-20T21:00:00Z,1395349200,2014,21,0,79.875,79.875,74.41128,-137.24778,1019.59,-999.00,-999.0,yes,no,no,169312003533431,WB,BAS,APL_Sachs_Harbor,North
2014-03-20T22:00:28Z,1395352829,2014,22,0,79.917,79.917,74.4119,-137.22312,1024.79,-999.00,-999.0,yes,no,no,169312003533431,WB,BAS,APL_Sachs_Harbor,North
2014-03-20T22:59:31Z,1395356371,2014,23,0,79.958,79.958,74.41198,-137.19882,1025.99,-999.00,-999.0,yes,no,no,169312003533431,WB,BAS,APL_Sachs_Harbor,North
2014-03-21T00:00:00Z,1395360000,2014,0,0,80.0,80.0,74.41168,-137.1743,1022.26,-999.00,-999.0,yes,no,no,169312003533431,WB,BAS,APL_Sachs_Harbor,North
2014-03-21T01:00:28Z,1395363629,2014,1,0,80.042,80.042,74.41037,-137.15075,1023.45,-999.00,-999.0,yes,no,no,169312003533431,WB,BAS,APL_Sachs_Harbor,North
2014-03-21T01:59:31Z,1395367171,2014,2,0,80.083,80.083,74.40883,-137.13088,1024.78,-999.00,-999.0,yes,no,no,169312003533431,WB,BAS,APL_Sachs_Harbor,North
2014-03-21T03:00:00Z,1395370800,2014,3,0,80.125,80.125,74.40685,-137.1159,1025.98,-999.00,-999.0,yes,no,no,169312003533431,WB,BAS,APL_Sachs_Harbor,North
2014-03-21T04:00:28Z,1395374429,2014,4,0,80.167,80.167,74.40472,-137.10317,1024.78,-999.00,-999.0,yes,no,no,169312003533431,WB,BAS,APL_Sachs_Harbor,North
2014-03-21T04:59:31Z,1395377971,2014,5,0,80.208,80.208,74.40297,-137.09215,1024.78,-999.00,-999.0,yes,no,no,169312003533431,WB,BAS,APL_Sachs_Harbor,North
2014-03-21T06:00:00Z,1395381600,2014,6,0,80.25,80.25,74.40165,-137.08468,1024.78,-999.00,-999.0,yes,no,no,169312003533431,WB,BAS,APL_Sachs_Harbor,North
2014-03-21T07:00:28Z,1395385229,2014,7,0,80.292,80.292,74.40113,-137.08093,1023.44,-999.00,-999.0,yes,no,no,169312003533431,WB,BAS,APL_Sachs_Harbor,North
2014-03-21T07:59:31Z,1395388771,2014,8,0,80.333,80.333,74.40063,-137.07235,1022.24,-999.00,-999.0,yes,no,no,169312003533431,WB,BAS,APL_Sachs_Harbor,North
2014-03-21T09:00:00Z,1395392400,2014,9,0,80.375,80.375,74.40057,-137.062,1024.78,-999.00,-999.0,yes,no,no,169312003533431,WB,BAS,APL_Sachs_Harbor,North
2014-03-21T10:00:28Z,1395396029,2014,10,0,80.417,80.417,74.4007,-137.05077,1022.24,-999.00,-999.0,yes,no,no,169312003533431,WB,BAS,APL_Sachs_Harbor,North
2014-03-21T10:59:31Z,1395399571,2014,11,0,80.458,80.458,74.40088,-137.0373,1020.91,-999.00,-999.0,yes,no,no,169312003533431,WB,BAS,APL_Sachs_Harbor,North
2014-03-21T12:00:00Z,1395403200,2014,12,0,80.5,80.5,74.40118,-137.02062,1020.91,-999.00,-999.0,yes,no,no,169312003533431,WB,BAS,APL_Sachs_Harbor,North
2014-03-21T13:00:28Z,1395406829,2014,13,0,80.542,80.542,74.40125,-137.00405,1020.91,-999.00,-999.0,yes,no,no,169312003533431,WB,BAS,APL_Sachs_Harbor,North
2014-03-21T13:59:31Z,1395410371,2014,14,0,80.583,80.583,74.40132,-136.98877,1018.38,-999.00,-999.0,yes,no,no,169312003533431,WB,BAS,APL_Sachs_Harbor,North
2014-03-21T15:00:00Z,1395414000,2014,15,0,80.625,80.625,74.40192,-136.97,1020.91,-999.00,-999.0,yes,no,no,169312003533431,WB,BAS,APL_Sachs_Harbor,North
2014-03-21T16:00:28Z,1395417629,2014,16,0,80.667,80.667,74.40272,-136.95315,1010.65,-999.00,-999.0,yes,no,no,169312003533431,WB,BAS,APL_Sachs_Harbor,North
2014-03-21T16:59:31Z,1395421171,2014,17,0,80.708,80.708,74.40397,-136.93695,1015.85,-999.00,-999.0,yes,no,no,169312003533431,WB,BAS,APL_Sachs_Harbor,North
2014-03-21T18:00:00Z,1395424800,2014,18,0,80.75,80.75,74.4055,-136.91907,1015.85,-999.00,-999.0,yes,no,no,169312003533431,WB,BAS,APL_Sachs_Harbor,North
2014-03-21T19:00:28Z,1395428429,2014,19,0,80.792,80.792,74.40695,-136.89525,1013.31,-999.00,-999.0,yes,no,no,169312003533431,WB,BAS,APL_Sachs_Harbor,North
2014-03-21T19:59:31Z,1395431971,2014,20,0,80.833,80.833,74.40727,-136.86822,1014.52,-999.00,-999.0,yes,no,no,169312003533431,WB,BAS,APL_Sachs_Harbor,North
2014-03-21T21:00:00Z,1395435600,2014,21,0,80.875,80.875,74.406,-136.84162,1014.52,-999.00,-999.0,yes,no,no,169312003533431,WB,BAS,APL_Sachs_Harbor,North
2014-03-21T22:00:28Z,1395439229,2014,22,0,80.917,80.917,74.40242,-136.81525,1015.85,-999.00,-999.0,yes,no,no,169312003533431,WB,BAS,APL_Sachs_Harbor,North
2014-03-21T22:59:31Z,1395442771,2014,23,0,80.958,80.958,74.39765,-136.79193,1015.85,-999.00,-999.0,yes,no,no,169312003533431,WB,BAS,APL_Sachs_Harbor,North
2014-03-22T00:00:00Z,1395446400,2014,0,0,81.0,81.0,74.39173,-136.77282,1017.05,-999.00,-999.0,yes,no,no,169312003533431,WB,BAS,APL_Sachs_Harbor,North
2014-03-22T01:00:28Z,1395450029,2014,1,0,81.042,81.042,74.38505,-136.75705,1014.52,-999.00,-999.0,yes,no,no,169312003533431,WB,BAS,APL_Sachs_Harbor,North
2014-03-22T01:59:31Z,1395453571,2014,2,0,81.083,81.083,74.37785,-136.74978,1015.85,-999.00,-999.0,yes,no,no,169312003533431,WB,BAS,APL_Sachs_Harbor,North
2014-03-22T03:00:00Z,1395457200,2014,3,0,81.125,81.125,74.36985,-136.74518,1014.51,-999.00,-999.0,yes,no,no,169312003533431,WB,BAS,APL_Sachs_Harbor,North
2014-03-22T04:00:28Z,1395460829,2014,4,0,81.167,81.167,74.36213,-136.74875,1015.85,-999.00,-999.0,yes,no,no,169312003533431,WB,BAS,APL_Sachs_Harbor,North
2014-03-22T04:59:31Z,1395464371,2014,5,0,81.208,81.208,74.35583,-136.75767,1018.38,-999.00,-999.0,yes,no,no,169312003533431,WB,BAS,APL_Sachs_Harbor,North
2014-03-22T06:00:00Z,1395468000,2014,6,0,81.25,81.25,74.35115,-136.77037,1015.85,-999.00,-999.0,yes,no,no,169312003533431,WB,BAS,APL_Sachs_Harbor,North
2014-03-22T07:00:28Z,1395471629,2014,7,0,81.292,81.292,74.34797,-136.78182,1017.05,-999.00,-999.0,yes,no,no,169312003533431,WB,BAS,APL_Sachs_Harbor,North
2014-03-22T07:59:31Z,1395475171,2014,8,0,81.333,81.333,74.34525,-136.79097,1019.58,-999.00,-999.0,yes,no,no,169312003533431,WB,BAS,APL_Sachs_Harbor,North
2014-03-22T09:00:00Z,1395478800,2014,9,0,81.375,81.375,74.34317,-136.79533,1019.58,-999.00,-999.0,yes,no,no,169312003533431,WB,BAS,APL_Sachs_Harbor,North
2014-03-22T10:00:28Z,1395482429,2014,10,0,81.417,81.417,74.34167,-136.7962,1019.58,-999.00,-999.0,yes,no,no,169312003533431,WB,BAS,APL_Sachs_Harbor,North
2014-03-22T10:59:31Z,1395485971,2014,11,0,81.458,81.458,74.33827,-136.79685,1022.24,-999.00,-999.0,yes,no,no,169312003533431,WB,BAS,APL_Sachs_Harbor,North
2014-03-22T12:00:00Z,1395489600,2014,12,0,81.5,81.5,74.33455,-136.79778,1020.91,-999.00,-999.0,yes,no,no,169312003533431,WB,BAS,APL_Sachs_Harbor,North
2014-03-22T13:00:28Z,1395493229,2014,13,0,81.542,81.542,74.3307,-136.79955,1020.91,-999.00,-999.0,yes,no,no,169312003533431,WB,BAS,APL_Sachs_Harbor,North
2014-03-22T13:59:31Z,1395496771,2014,14,0,81.583,81.583,74.32688,-136.80235,1009.45,-999.00,-999.0,yes,no,no,169312003533431,WB,BAS,APL_Sachs_Harbor,North
2014-03-22T15:00:00Z,1395500400,2014,15,0,81.625,81.625,74.32267,-136.8066,1022.24,-999.00,-999.0,yes,no,no,169312003533431,WB,BAS,APL_Sachs_Harbor,North
2014-03-22T16:00:28Z,1395504029,2014,16,0,81.667,81.667,74.31977,-136.81297,1023.45,-999.00,-999.0,yes,no,no,169312003533431,WB,BAS,APL_Sachs_Harbor,North
2014-03-22T16:59:31Z,1395507571,2014,17,0,81.708,81.708,74.3184,-136.81583,1024.78,-999.00,-999.0,yes,no,no,169312003533431,WB,BAS,APL_Sachs_Harbor,North
2014-03-22T18:00:00Z,1395511200,2014,18,0,81.75,81.75,74.31668,-136.82063,1024.79,-999.00,-999.0,yes,no,no,169312003533431,WB,BAS,APL_Sachs_Harbor,North
2014-03-22T19:00:28Z,1395514829,2014,19,0,81.792,81.792,74.3151,-136.82522,1027.32,-999.00,-999.0,yes,no,no,169312003533431,WB,BAS,APL_Sachs_Harbor,North
2014-03-22T19:59:31Z,1395518371,2014,20,0,81.833,81.833,74.31472,-136.82612,1025.99,-999.00,-999.0,yes,no,no,169312003533431,WB,BAS,APL_Sachs_Harbor,North
2014-03-22T21:00:00Z,1395522000,2014,21,0,81.875,81.875,74.31393,-136.82712,1029.86,-999.00,-999.0,yes,no,no,169312003533431,WB,BAS,APL_Sachs_Harbor,North
2014-03-22T22:00:28Z,1395525629,2014,22,0,81.917,81.917,74.31272,-136.82662,1032.39,-999.00,-999.0,yes,no,no,169312003533431,WB,BAS,APL_Sachs_Harbor,North
2014-03-22T22:59:31Z,1395529171,2014,23,0,81.958,81.958,74.31272,-136.82662,1033.72,-999.00,-999.0,yes,no,no,169312003533431,WB,BAS,APL_Sachs_Harbor,North
2014-03-23T00:00:00Z,1395532800,2014,0,0,82.0,82.0,74.30965,-136.8217,1034.92,-999.00,-999.0,yes,no,no,169312003533431,WB,BAS,APL_Sachs_Harbor,North
2014-03-23T01:00:28Z,1395536429,2014,1,0,82.042,82.042,74.30965,-136.8217,1036.25,-999.00,-999.0,yes,no,no,169312003533431,WB,BAS,APL_Sachs_Harbor,North
2014-03-23T01:59:31Z,1395539971,2014,2,0,82.083,82.083,74.30753,-136.8191,1034.92,-999.00,-999.0,yes,no,no,169312003533431,WB,BAS,APL_Sachs_Harbor,North
2014-03-23T03:00:00Z,1395543600,2014,3,0,82.125,82.125,74.30578,-136.81872,1034.91,-999.00,-999.0,yes,no,no,169312003533431,WB,BAS,APL_Sachs_Harbor,North
2014-03-23T04:00:28Z,1395547229,2014,4,0,82.167,82.167,74.30515,-136.81863,1033.71,-999.00,-999.0,yes,no,no,169312003533431,WB,BAS,APL_Sachs_Harbor,North
2014-03-23T04:59:31Z,1395550771,2014,5,0,82.208,82.208,74.3041,-136.81933,1032.38,-999.00,-999.0,yes,no,no,169312003533431,WB,BAS,APL_Sachs_Harbor,North
2014-03-23T06:00:00Z,1395554400,2014,6,0,82.25,82.25,74.3041,-136.81933,1032.38,-999.00,-999.0,yes,no,no,169312003533431,WB,BAS,APL_Sachs_Harbor,North
2014-03-23T07:00:28Z,1395558029,2014,7,0,82.292,82.292,74.30322,-136.81745,1032.38,-999.00,-999.0,yes,no,no,169312003533431,WB,BAS,APL_Sachs_Harbor,North
2014-03-23T07:59:31Z,1395561571,2014,8,0,82.333,82.333,74.30332,-136.81432,1037.45,-999.00,-999.0,yes,no,no,169312003533431,WB,BAS,APL_Sachs_Harbor,North
2014-03-23T09:00:00Z,1395565200,2014,9,0,82.375,82.375,74.3036,-136.80975,1029.85,-999.00,-999.0,yes,no,no,169312003533431,WB,BAS,APL_Sachs_Harbor,North
2014-03-23T10:00:28Z,1395568829,2014,10,0,82.417,82.417,74.30375,-136.80765,1029.85,-999.00,-999.0,yes,no,no,169312003533431,WB,BAS,APL_Sachs_Harbor,North
2014-03-23T10:59:31Z,1395572371,2014,11,0,82.458,82.458,74.3042,-136.8015,1018.38,-999.00,-999.0,yes,no,no,169312003533431,WB,BAS,APL_Sachs_Harbor,North
2014-03-23T12:00:00Z,1395576000,2014,12,0,82.5,82.5,74.30463,-136.796,1017.05,-999.00,-999.0,yes,no,no,169312003533431,WB,BAS,APL_Sachs_Harbor,North
2014-03-23T13:00:28Z,1395579629,2014,13,0,82.542,82.542,74.30533,-136.78715,1028.51,-999.00,-999.0,yes,no,no,169312003533431,WB,BAS,APL_Sachs_Harbor,North
2014-03-23T13:59:31Z,1395583171,2014,14,0,82.583,82.583,74.30567,-136.78248,1028.51,-999.00,-999.0,yes,no,no,169312003533431,WB,BAS,APL_Sachs_Harbor,North
2014-03-23T15:00:00Z,1395586800,2014,15,0,82.625,82.625,74.30642,-136.77677,1027.31,-999.00,-999.0,yes,no,no,169312003533431,WB,BAS,APL_Sachs_Harbor,North
2014-03-23T16:00:28Z,1395590429,2014,16,0,82.667,82.667,74.30733,-136.7698,1025.98,-999.00,-999.0,yes,no,no,169312003533431,WB,BAS,APL_Sachs_Harbor,North
2014-03-23T16:59:31Z,1395593971,2014,17,0,82.708,82.708,74.3084,-136.76258,1024.78,-999.00,-999.0,yes,no,no,169312003533431,WB,BAS,APL_Sachs_Harbor,North
2014-03-23T18:00:00Z,1395597600,2014,18,0,82.75,82.75,74.30958,-136.7556,1023.45,-999.00,-999.0,yes,no,no,169312003533431,WB,BAS,APL_Sachs_Harbor,North
2014-03-23T19:00:28Z,1395601229,2014,19,0,82.792,82.792,74.31137,-136.74558,1019.58,-999.00,-999.0,yes,no,no,169312003533431,WB,BAS,APL_Sachs_Harbor,North
2014-03-23T19:59:31Z,1395604771,2014,20,0,82.833,82.833,74.31283,-136.7364,1024.78,-999.00,-999.0,yes,no,no,169312003533431,WB,BAS,APL_Sachs_Harbor,North
2014-03-23T21:00:00Z,1395608400,2014,21,0,82.875,82.875,74.31485,-136.72285,1024.79,-999.00,-999.0,yes,no,no,169312003533431,WB,BAS,APL_Sachs_Harbor,North
2014-03-23T22:00:28Z,1395612029,2014,22,0,82.917,82.917,74.31677,-136.70915,1024.79,-999.00,-999.0,yes,no,no,169312003533431,WB,BAS,APL_Sachs_Harbor,North
2014-03-23T22:59:31Z,1395615571,2014,23,0,82.958,82.958,74.31828,-136.69418,1027.32,-999.00,-999.0,yes,no,no,169312003533431,WB,BAS,APL_Sachs_Harbor,North
2014-03-24T00:00:00Z,1395619200,2014,0,0,83.0,83.0,74.31975,-136.6785,1022.25,-999.00,-999.0,yes,no,no,169312003533431,WB,BAS,APL_Sachs_Harbor,North
2014-03-24T01:00:28Z,1395622829,2014,1,0,83.042,83.042,74.32093,-136.66513,1020.92,-999.00,-999.0,yes,no,no,169312003533431,WB,BAS,APL_Sachs_Harbor,North
2014-03-24T01:59:31Z,1395626371,2014,2,0,83.083,83.083,74.32137,-136.65222,1022.25,-999.00,-999.0,yes,no,no,169312003533431,WB,BAS,APL_Sachs_Harbor,North
2014-03-24T03:00:00Z,1395630000,2014,3,0,83.125,83.125,74.32148,-136.64037,1018.38,-999.00,-999.0,yes,no,no,169312003533431,WB,BAS,APL_Sachs_Harbor,North
2014-03-24T04:00:28Z,1395633629,2014,4,0,83.167,83.167,74.32102,-136.63087,1017.05,-999.00,-999.0,yes,no,no,169312003533431,WB,BAS,APL_Sachs_Harbor,North
2014-03-24T04:59:31Z,1395637171,2014,5,0,83.208,83.208,74.32033,-136.62263,1014.51,-999.00,-999.0,yes,no,no,169312003533431,WB,BAS,APL_Sachs_Harbor,North
2014-03-24T06:00:00Z,1395640800,2014,6,0,83.25,83.25,74.3191,-136.61645,1014.51,-999.00,-999.0,yes,no,no,169312003533431,WB,BAS,APL_Sachs_Harbor,North
2014-03-24T07:00:28Z,1395644429,2014,7,0,83.292,83.292,74.31772,-136.61195,1015.85,-999.00,-999.0,yes,no,no,169312003533431,WB,BAS,APL_Sachs_Harbor,North
2014-03-24T07:59:31Z,1395647971,2014,8,0,83.333,83.333,74.31693,-136.61063,1014.51,-999.00,-999.0,yes,no,no,169312003533431,WB,BAS,APL_Sachs_Harbor,North
2014-03-24T09:00:00Z,1395651600,2014,9,0,83.375,83.375,74.3138,-136.60783,1011.98,-999.00,-999.0,yes,no,no,169312003533431,WB,BAS,APL_Sachs_Harbor,North
2014-03-24T10:00:28Z,1395655229,2014,10,0,83.417,83.417,74.3113,-136.60678,1015.85,-999.00,-999.0,yes,no,no,169312003533431,WB,BAS,APL_Sachs_Harbor,North
2014-03-24T10:59:31Z,1395658771,2014,11,0,83.458,83.458,74.30865,-136.6067,1015.85,-999.00,-999.0,yes,no,no,169312003533431,WB,BAS,APL_Sachs_Harbor,North
2014-03-24T12:00:00Z,1395662400,2014,12,0,83.5,83.5,74.30538,-136.60832,1014.51,-999.00,-999.0,yes,no,no,169312003533431,WB,BAS,APL_Sachs_Harbor,North
2014-03-24T13:00:28Z,1395666029,2014,13,0,83.542,83.542,74.30212,-136.60968,1018.38,-999.00,-999.0,yes,no,no,169312003533431,WB,BAS,APL_Sachs_Harbor,North
2014-03-24T13:59:31Z,1395669571,2014,14,0,83.583,83.583,74.29862,-136.61135,1018.38,-999.00,-999.0,yes,no,no,169312003533431,WB,BAS,APL_Sachs_Harbor,North
2014-03-24T15:00:00Z,1395673200,2014,15,0,83.625,83.625,74.29485,-136.61403,1020.91,-999.00,-999.0,yes,no,no,169312003533431,WB,BAS,APL_Sachs_Harbor,North
2014-03-24T16:00:28Z,1395676829,2014,16,0,83.667,83.667,74.2917,-136.61743,1022.25,-999.00,-999.0,yes,no,no,169312003533431,WB,BAS,APL_Sachs_Harbor,North
2014-03-24T16:59:31Z,1395680371,2014,17,0,83.708,83.708,74.28895,-136.62343,1020.92,-999.00,-999.0,yes,no,no,169312003533431,WB,BAS,APL_Sachs_Harbor,North
2014-03-24T18:00:00Z,1395684000,2014,18,0,83.75,83.75,74.2868,-136.62847,1022.25,-999.00,-999.0,yes,no,no,169312003533431,WB,BAS,APL_Sachs_Harbor,North
2014-03-24T19:00:28Z,1395687629,2014,19,0,83.792,83.792,74.28485,-136.6325,1024.79,-999.00,-999.0,yes,no,no,169312003533431,WB,BAS,APL_Sachs_Harbor,North
2014-03-24T19:59:31Z,1395691171,2014,20,0,83.833,83.833,74.2842,-136.63348,1024.79,-999.00,-999.0,yes,no,no,169312003533431,WB,BAS,APL_Sachs_Harbor,North
2014-03-24T21:00:00Z,1395694800,2014,21,0,83.875,83.875,74.28248,-136.6354,1028.52,-999.00,-999.0,yes,no,no,169312003533431,WB,BAS,APL_Sachs_Harbor,North
2014-03-24T22:00:28Z,1395698429,2014,22,0,83.917,83.917,74.28185,-136.635,1029.85,-999.00,-999.0,yes,no,no,169312003533431,WB,BAS,APL_Sachs_Harbor,North
2014-03-24T22:59:31Z,1395701971,2014,23,0,83.958,83.958,74.28052,-136.63275,1031.19,-999.00,-999.0,yes,no,no,169312003533431,WB,BAS,APL_Sachs_Harbor,North
2014-03-25T00:00:00Z,1395705600,2014,0,0,84.0,84.0,74.27927,-136.62898,1040.12,-999.00,-999.0,yes,no,no,169312003533431,WB,BAS,APL_Sachs_Harbor,North
2014-03-25T01:00:28Z,1395709229,2014,1,0,84.042,84.042,74.27927,-136.62898,1038.78,-999.00,-999.0,yes,no,no,169312003533431,WB,BAS,APL_Sachs_Harbor,North
2014-03-25T01:59:31Z,1395712771,2014,2,0,84.083,84.083,74.27662,-136.62187,1029.85,-999.00,-999.0,yes,no,no,169312003533431,WB,BAS,APL_Sachs_Harbor,North
2014-03-25T03:00:00Z,1395716400,2014,3,0,84.125,84.125,74.27502,-136.61878,1029.85,-999.00,-999.0,yes,no,no,169312003533431,WB,BAS,APL_Sachs_Harbor,North
2014-03-25T04:00:28Z,1395720029,2014,4,0,84.167,84.167,74.27457,-136.61793,1029.85,-999.00,-999.0,yes,no,no,169312003533431,WB,BAS,APL_Sachs_Harbor,North
2014-03-25T04:59:31Z,1395723571,2014,5,0,84.208,84.208,74.27457,-136.61793,1028.51,-999.00,-999.0,yes,no,no,169312003533431,WB,BAS,APL_Sachs_Harbor,North
2014-03-25T06:00:00Z,1395727200,2014,6,0,84.25,84.25,74.27255,-136.616,1027.31,-999.00,-999.0,yes,no,no,169312003533431,WB,BAS,APL_Sachs_Harbor,North
2014-03-25T07:00:28Z,1395730829,2014,7,0,84.292,84.292,74.27215,-136.61617,1027.31,-999.00,-999.0,yes,no,no,169312003533431,WB,BAS,APL_Sachs_Harbor,North
2014-03-25T07:59:31Z,1395734371,2014,8,0,84.333,84.333,74.27215,-136.61617,1025.98,-999.00,-999.0,yes,no,no,169312003533431,WB,BAS,APL_Sachs_Harbor,North
2014-03-25T09:00:00Z,1395738000,2014,9,0,84.375,84.375,74.27215,-136.61617,1025.98,-999.00,-999.0,yes,no,no,169312003533431,WB,BAS,APL_Sachs_Harbor,North
2014-03-25T10:00:28Z,1395741629,2014,10,0,84.417,84.417,74.27177,-136.6145,1025.98,-999.00,-999.0,yes,no,no,169312003533431,WB,BAS,APL_Sachs_Harbor,North
2014-03-25T10:59:31Z,1395745171,2014,11,0,84.458,84.458,74.27187,-136.61138,1031.18,-999.00,-999.0,yes,no,no,169312003533431,WB,BAS,APL_Sachs_Harbor,North
2014-03-25T12:00:00Z,1395748800,2014,12,0,84.5,84.5,74.27195,-136.61052,1024.78,-999.00,-999.0,yes,no,no,169312003533431,WB,BAS,APL_Sachs_Harbor,North
2014-03-25T13:00:28Z,1395752429,2014,13,0,84.542,84.542,74.27195,-136.61052,1024.78,-999.00,-999.0,yes,no,no,169312003533431,WB,BAS,APL_Sachs_Harbor,North
2014-03-25T13:59:31Z,1395755971,2014,14,0,84.583,84.583,74.27195,-136.61052,1023.45,-999.00,-999.0,yes,no,no,169312003533431,WB,BAS,APL_Sachs_Harbor,North
2014-03-25T15:00:00Z,1395759600,2014,15,0,84.625,84.625,74.27195,-136.61052,1024.78,-999.00,-999.0,yes,no,no,169312003533431,WB,BAS,APL_Sachs_Harbor,North
2014-03-25T16:00:28Z,1395763229,2014,16,0,84.667,84.667,74.27212,-136.60912,1019.58,-999.00,-999.0,yes,no,no,169312003533431,WB,BAS,APL_Sachs_Harbor,North
2014-03-25T16:59:31Z,1395766771,2014,17,0,84.708,84.708,74.27212,-136.60912,1023.45,-999.00,-999.0,yes,no,no,169312003533431,WB,BAS,APL_Sachs_Harbor,North
2014-03-25T18:00:00Z,1395770400,2014,18,0,84.75,84.75,74.27238,-136.60768,1020.92,-999.00,-999.0,yes,no,no,169312003533431,WB,BAS,APL_Sachs_Harbor,North
2014-03-25T19:00:28Z,1395774029,2014,19,0,84.792,84.792,74.27273,-136.60603,1022.25,-999.00,-999.0,yes,no,no,169312003533431,WB,BAS,APL_Sachs_Harbor,North
2014-03-25T19:59:31Z,1395777571,2014,20,0,84.833,84.833,74.27328,-136.60315,1022.26,-999.00,-999.0,yes,no,no,169312003533431,WB,BAS,APL_Sachs_Harbor,North
2014-03-25T21:00:00Z,1395781200,2014,21,0,84.875,84.875,74.27328,-136.60315,1023.45,-999.00,-999.0,yes,no,no,169312003533431,WB,BAS,APL_Sachs_Harbor,North